Weather in Bolshevik

Russia / Stavropol Krai     45°51′56″N   42°18′19″E
temp.,
°C
wind,
m/s
gust,
m/s
humid.,
%
clouds,
%
prec.,
mm/h
press.,
hPa
HPBL,
m
5 march, fri
fri500:00+1sw513860 0.0 1020385
03:000sw513860 0.0 1019402
06:000sw36822 0.0 1019113
09:00+4sw510601 0.0 1018759
12:00+8wsw69520 0.0 1017953
15:00+9wsw694527 0.0 10161121
18:00+6wsw236284 0.0 101729
21:00+4ssw347051 0.0 101852
6 march, sat
sat600:00+3s23641 0.0 101722
03:00+2ssw22600 0.0 101722
06:00+2ssw236065 0.0 101622
09:00+7s355280 0.0 1016169
12:00+11wsw71437100 0.0 10141325
15:00+14w8144290 0.0 10111616
18:00+10wsw61564100 0.0 1010997
21:00+7w81387100 0.6 1013871
7 march, sun
sun700:000nw81296100 2.8 1016701
03:00−1nw81283100 4.6 1021914
06:00−4wnw6107933 0.0 1024646
09:00−2wnw687017 0.0 1026938
12:00+1wnw56520 0.0 10251312
15:00+2w57440 0.0 10231406
18:00−1wsw37610 0.0 1023186
21:00−1sw510660 0.0 1023310
8 march, mon
mon800:00−1wsw6127334 0.0 1022564
03:00−2wsw6136917 0.0 1022621
06:00−2sw612720 0.0 1021555
09:00+1wsw811570 0.0 10201039
12:00+4wsw8115231 0.0 10181377
15:00+5w8105649 0.0 10161486
18:00+2wsw487294 0.0 1016188
21:00+1sw5117697 0.0 1017371
9 march, tue
tue900:00−1sw6128180 0.0 1017393
03:00−1sw5118357 0.0 1017399
06:00−1wsw5108399 0.0 1017416
09:00+1wsw6993100 0.3 1017510
12:00+2wsw699499 0.4 1017529
15:00+1nw4697100 3.6 1017291
18:000wnw3593100 0.8 1019437
21:00−2wnw3492100 0.8 102293